sat.trackr.live / text

‹ back to catalog

ECHOSTAR 17

NORAD 38551 · 2012-035A

PAYLOAD ACTIVE UNKNOWN

§ Identity

Operator
Country
US
Launch date
2012-07-05
Launch site
FRGUI
Launch vehicle
Mass (kg)
RCS (m²)
12.59

Purposes: comms

External: N2YO · Heavens-Above · Gunter

§ Orbital elements

Epoch: 2026-09-20T03:56:22.424352Z

Period
1,436.10 min
Inclination
0.0167°
Eccentricity
0.0002063
Mean motion
1.00271772 rev/d
Perigee alt
35,777.9 km
Apogee alt
35,795.3 km
Semi-major
42,164.7 km
B*
0.0000e+0
RAAN
136.9451°
Arg perigee
41.4918°
Mean anomaly
132.6292°
Rev number
5,201

§ Raw data

ECHOSTAR 171 38551U 12035A   26263.16414843 -.00000080  00000+0  00000+0 0  99902 38551   0.0167 136.9451 0002063  41.4918 132.6292  1.00271772 52015

JSON: /api/v1/satellites/38551 · /tle

For live sub-satellite position, see the globe view (requires WebGL).

§ Visibility from observer

Set your observer location to see the next 7 days of passes ≥ 10°. The values pass through the URL so the page stays shareable.

No JS? Fill the form by hand. The geolocation button needs JavaScript.